AEE1234 EDDH-EDDP

Flight info

Callsign AEE1234
Flight time 0h 45m
Altitude 23000
Route AMLUH2G/33 AMLUH M852 DENIX Z113 SAS Z88 UPDAT/N0440F270 T236 ADMOS/N0415F230 T959 KOJEC KOJEC1V
Aircraft A320/M-SDE3FGHIRWY/LB1

Departure

Time 2026-04-23 18:12
Airport Hamburg Helmut Schmidt Airport (EDDH)

Arrival

Time 2026-04-23 18:57
Airport Leipzig/Halle Airport (EDDP)
Time Latitude Longitude Altitude Speed Heading
2026-04-23 17:36 53.63073 10.00383 46 ft 0 kts 93°
2026-04-23 18:03 53.63073 10.00373 51 ft 4 kts 92°
2026-04-23 18:03 53.63073 10.00328 50 ft 4 kts 83°
2026-04-23 18:03 53.63069 10.00288 49 ft 0 kts 66°
2026-04-23 18:04 53.63062 10.00267 51 ft 0 kts 43°
2026-04-23 18:04 53.63051 10.00254 45 ft 2 kts
2026-04-23 18:05 53.63045 10.00253 45 ft 0 kts
2026-04-23 18:08 53.63050 10.00251 46 ft 5 kts 352°
2026-04-23 18:08 53.63079 10.00197 51 ft 7 kts 253°
2026-04-23 18:09 53.63033 10.00145 51 ft 10 kts 208°
2026-04-23 18:09 53.62971 10.00085 51 ft 11 kts 211°
2026-04-23 18:09 53.62926 10.00017 51 ft 0 kts 233°
2026-04-23 18:09 53.62919 9.99997 51 ft 4 kts 241°
2026-04-23 18:10 53.62918 9.99992 51 ft 0 kts 242°
2026-04-23 18:11 53.62917 9.99989 51 ft 2 kts 242°
2026-04-23 18:11 53.62906 9.99956 51 ft 0 kts 242°
2026-04-23 18:11 53.62892 9.99908 52 ft 11 kts 243°
2026-04-23 18:11 53.62866 9.99781 51 ft 13 kts 272°
2026-04-23 18:12 53.62950 9.99661 52 ft 33 kts 330°
2026-04-23 18:12 53.63389 9.99277 50 ft 104 kts 333°
2026-04-23 18:12 53.64199 9.98575 65 ft 154 kts 334°
2026-04-23 18:12 53.65154 9.97838 794 ft 145 kts 332°
2026-04-23 18:13 53.66052 9.97192 1657 ft 137 kts 335°
2026-04-23 18:13 53.66946 9.96492 2161 ft 151 kts 333°
2026-04-23 18:13 53.67925 9.95608 2605 ft 167 kts 331°
2026-04-23 18:13 53.68966 9.94553 3129 ft 181 kts 328°
2026-04-23 18:14 53.70062 9.93329 3619 ft 199 kts 328°
2026-04-23 18:14 53.71367 9.92612 4446 ft 203 kts 359°
2026-04-23 18:14 53.72697 9.93491 4868 ft 215 kts 39°
2026-04-23 18:14 53.73379 9.95805 5511 ft 231 kts 72°
2026-04-23 18:15 53.73610 9.98524 6423 ft 234 kts 73°
2026-04-23 18:15 53.73916 10.01226 7282 ft 238 kts 77°
2026-04-23 18:15 53.73837 10.04078 8093 ft 252 kts 97°
2026-04-23 18:15 53.73128 10.06976 8506 ft 283 kts 115°
2026-04-23 18:16 53.72129 10.09983 9064 ft 301 kts 116°
2026-04-23 18:16 53.71082 10.13084 9909 ft 307 kts 116°
2026-04-23 18:16 53.69972 10.16197 10648 ft 318 kts 122°
2026-04-23 18:17 53.66363 10.21317 11166 ft 370 kts 155°
2026-04-23 18:17 53.63869 10.22669 11687 ft 382 kts 166°
2026-04-23 18:17 53.61282 10.23804 12443 ft 386 kts 165°
2026-04-23 18:17 53.58667 10.24988 13234 ft 391 kts 165°
2026-04-23 18:18 53.56031 10.26204 14025 ft 395 kts 164°
2026-04-23 18:18 53.53369 10.27441 14741 ft 398 kts 164°
2026-04-23 18:18 53.50690 10.28686 15480 ft 401 kts 164°
2026-04-23 18:18 53.47987 10.29936 16184 ft 404 kts 164°
2026-04-23 18:19 53.45276 10.31178 16881 ft 406 kts 165°
2026-04-23 18:19 53.42535 10.32425 17539 ft 410 kts 165°
2026-04-23 18:19 53.39759 10.33682 18248 ft 414 kts 165°
2026-04-23 18:19 53.36992 10.34868 18879 ft 418 kts 167°
2026-04-23 18:20 53.34130 10.35890 19506 ft 421 kts 169°
2026-04-23 18:20 53.31237 10.36775 20176 ft 425 kts 170°
2026-04-23 18:20 53.28303 10.37599 20848 ft 428 kts 171°
2026-04-23 18:20 53.25356 10.38412 21515 ft 431 kts 170°
2026-04-23 18:21 53.22391 10.39251 22127 ft 434 kts 170°
2026-04-23 18:21 53.19403 10.40124 22717 ft 437 kts 170°
2026-04-23 18:21 53.16403 10.41031 23145 ft 440 kts 169°
2026-04-23 18:21 53.13371 10.41969 23255 ft 448 kts 169°
2026-04-23 18:22 53.10265 10.42939 23259 ft 461 kts 169°
2026-04-23 18:22 53.07130 10.43911 23253 ft 465 kts 169°
2026-04-23 18:22 53.03933 10.44888 23256 ft 466 kts 169°
2026-04-23 18:22 53.00748 10.45852 23253 ft 466 kts 169°
2026-04-23 18:23 52.98589 10.46507 23261 ft 466 kts 169°
2026-04-23 18:23 52.91157 10.48759 23255 ft 467 kts 169°
2026-04-23 18:24 52.84759 10.50687 23260 ft 467 kts 169°
2026-04-23 18:24 52.81567 10.51649 23254 ft 466 kts 169°
2026-04-23 18:24 52.78374 10.52614 23249 ft 466 kts 169°
2026-04-23 18:25 52.71995 10.54542 23255 ft 466 kts 169°
2026-04-23 18:25 52.68801 10.55499 23258 ft 466 kts 169°
2026-04-23 18:25 52.65659 10.56432 23256 ft 466 kts 169°
2026-04-23 18:25 52.62462 10.57377 23260 ft 466 kts 169°
2026-04-23 18:26 52.59270 10.58319 23242 ft 466 kts 169°
2026-04-23 18:26 52.56072 10.59265 23242 ft 466 kts 169°
2026-04-23 18:26 52.52880 10.60215 23242 ft 467 kts 169°
2026-04-23 18:26 52.49685 10.61168 23244 ft 467 kts 169°
2026-04-23 18:27 52.46483 10.62115 23245 ft 466 kts 169°
2026-04-23 18:27 52.43274 10.63068 23246 ft 466 kts 169°
2026-04-23 18:27 52.40122 10.64002 23243 ft 466 kts 169°
2026-04-23 18:27 52.36928 10.64944 23240 ft 466 kts 169°
2026-04-23 18:28 52.33732 10.65882 23236 ft 466 kts 169°
2026-04-23 18:28 52.30537 10.66819 23245 ft 466 kts 169°
2026-04-23 18:28 52.27347 10.67756 23249 ft 466 kts 169°
2026-04-23 18:28 52.24174 10.68829 23185 ft 463 kts 162°
2026-04-23 18:29 52.21263 10.70922 22911 ft 454 kts 147°
2026-04-23 18:29 52.18674 10.73837 22655 ft 451 kts 143°
2026-04-23 18:29 52.16119 10.76795 22393 ft 450 kts 143°
2026-04-23 18:29 52.13575 10.79746 22132 ft 448 kts 143°
2026-04-23 18:30 52.11037 10.82684 21878 ft 447 kts 143°
2026-04-23 18:30 52.08504 10.85612 21639 ft 445 kts 142°
2026-04-23 18:30 52.05979 10.88522 21379 ft 446 kts 142°
2026-04-23 18:30 52.03446 10.91432 21127 ft 445 kts 143°
2026-04-23 18:31 52.00917 10.94331 20878 ft 443 kts 142°
2026-04-23 18:31 51.98409 10.97200 20631 ft 441 kts 142°
2026-04-23 18:31 51.95921 11.00040 20381 ft 431 kts 143°
2026-04-23 18:31 51.93536 11.02755 20123 ft 419 kts 143°
2026-04-23 18:32 51.91173 11.05440 19891 ft 409 kts 142°
2026-04-23 18:32 51.88872 11.08055 19653 ft 398 kts 142°
2026-04-23 18:32 51.86637 11.10597 19417 ft 388 kts 142°
2026-04-23 18:32 51.84457 11.13076 19185 ft 379 kts 142°
2026-04-23 18:33 51.82328 11.15494 18943 ft 370 kts 142°
2026-04-23 18:33 51.80233 11.17838 18708 ft 363 kts 146°
2026-04-23 18:33 51.77919 11.19368 18472 ft 359 kts 168°
2026-04-23 18:33 51.75454 11.19443 18206 ft 354 kts 190°
2026-04-23 18:34 51.73065 11.18594 17950 ft 350 kts 194°
2026-04-23 18:34 51.70702 11.17638 17686 ft 349 kts 194°
2026-04-23 18:34 51.68379 11.16691 17427 ft 347 kts 194°
2026-04-23 18:34 51.66041 11.15738 17169 ft 346 kts 194°
2026-04-23 18:35 51.63712 11.14789 16897 ft 344 kts 194°
2026-04-23 18:35 51.61396 11.13849 16540 ft 342 kts 194°
2026-04-23 18:35 51.59098 11.12918 16186 ft 340 kts 194°
2026-04-23 18:35 51.56808 11.11992 15838 ft 338 kts 194°
2026-04-23 18:36 51.54524 11.11075 15493 ft 337 kts 194°
2026-04-23 18:36 51.52223 11.10477 15153 ft 335 kts 179°
2026-04-23 18:36 51.49946 11.11064 14805 ft 330 kts 158°
2026-04-23 18:36 51.47967 11.12829 14442 ft 325 kts 136°
2026-04-23 18:37 51.46508 11.15524 14076 ft 317 kts 116°
2026-04-23 18:37 51.45698 11.18750 13667 ft 309 kts 97°
2026-04-23 18:37 51.45574 11.22116 13281 ft 300 kts 79°
2026-04-23 18:37 51.45967 11.25379 12892 ft 296 kts 73°
2026-04-23 18:38 51.46369 11.28620 12526 ft 296 kts 75°
2026-04-23 18:38 51.46743 11.31851 12176 ft 294 kts 75°
2026-04-23 18:38 51.47109 11.35071 11831 ft 293 kts 75°
2026-04-23 18:38 51.47472 11.38280 11484 ft 291 kts 75°
2026-04-23 18:39 51.47835 11.41470 11130 ft 290 kts 75°
2026-04-23 18:39 51.48198 11.44632 10803 ft 288 kts 75°
2026-04-23 18:39 51.48561 11.47786 10571 ft 287 kts 75°
2026-04-23 18:39 51.48927 11.50938 10327 ft 287 kts 75°
2026-04-23 18:40 51.49292 11.54080 10133 ft 285 kts 75°
2026-04-23 18:40 51.49657 11.57214 10001 ft 286 kts 75°
2026-04-23 18:40 51.50016 11.60316 9879 ft 286 kts 75°
2026-04-23 18:40 51.50377 11.63456 9739 ft 285 kts 74°
2026-04-23 18:41 51.50737 11.66586 9622 ft 284 kts 74°
2026-04-23 18:41 51.51096 11.69713 9485 ft 284 kts 74°
2026-04-23 18:41 51.51455 11.72831 9349 ft 284 kts 75°
2026-04-23 18:41 51.51811 11.75949 9227 ft 283 kts 75°
2026-04-23 18:42 51.52162 11.79054 9095 ft 283 kts 75°
2026-04-23 18:42 51.52513 11.82164 8964 ft 283 kts 75°
2026-04-23 18:42 51.52863 11.85271 8835 ft 282 kts 75°
2026-04-23 18:42 51.53194 11.88375 8707 ft 283 kts 78°
2026-04-23 18:43 51.53371 11.91534 8582 ft 284 kts 81°
2026-04-23 18:43 51.53521 11.94698 8452 ft 284 kts 81°
2026-04-23 18:43 51.53672 11.97814 8327 ft 283 kts 81°
2026-04-23 18:43 51.53829 12.00970 8216 ft 282 kts 81°
2026-04-23 18:44 51.53986 12.04121 8230 ft 283 kts 81°
2026-04-23 18:44 51.54142 12.07279 8233 ft 283 kts 81°
2026-04-23 18:44 51.54295 12.10435 8233 ft 283 kts 81°
2026-04-23 18:44 51.54446 12.13596 8240 ft 284 kts 81°
2026-04-23 18:45 51.54594 12.16758 8235 ft 284 kts 81°
2026-04-23 18:45 51.54742 12.19913 8222 ft 283 kts 81°
2026-04-23 18:45 51.54890 12.23072 8221 ft 283 kts 81°
2026-04-23 18:45 51.55035 12.26234 8126 ft 283 kts 81°
2026-04-23 18:46 51.55178 12.29390 8001 ft 283 kts 81°
2026-04-23 18:46 51.55321 12.32537 7877 ft 282 kts 81°
2026-04-23 18:46 51.55464 12.35682 7753 ft 282 kts 81°
2026-04-23 18:46 51.55604 12.38819 7629 ft 282 kts 81°
2026-04-23 18:47 51.55746 12.41968 7498 ft 282 kts 81°
2026-04-23 18:47 51.55888 12.45112 7383 ft 281 kts 81°
2026-04-23 18:47 51.56029 12.48244 7258 ft 281 kts 82°
2026-04-23 18:47 51.56169 12.51335 7137 ft 281 kts 82°
2026-04-23 18:48 51.56308 12.54462 7023 ft 280 kts 82°
2026-04-23 18:48 51.56445 12.57586 6896 ft 280 kts 82°
2026-04-23 18:48 51.56581 12.60706 6780 ft 280 kts 82°
2026-04-23 18:48 51.56715 12.63802 6658 ft 273 kts 82°
2026-04-23 18:49 51.56841 12.66800 6528 ft 264 kts 82°
2026-04-23 18:49 51.56962 12.69696 6395 ft 255 kts 82°
2026-04-23 18:49 51.57071 12.72494 6266 ft 248 kts 83°
2026-04-23 18:49 51.56788 12.75220 6121 ft 252 kts 112°
2026-04-23 18:50 51.56136 12.76770 6021 ft 255 kts 134°
2026-04-23 18:50 51.54045 12.78418 5814 ft 255 kts 176°
2026-04-23 18:50 51.52305 12.78069 5473 ft 254 kts 200°
2026-04-23 18:50 51.50765 12.76739 5010 ft 253 kts 227°
2026-04-23 18:51 51.49578 12.74638 4547 ft 256 kts 234°
2026-04-23 18:51 51.48455 12.72418 4051 ft 254 kts 235°
2026-04-23 18:51 51.47353 12.70228 3576 ft 250 kts 235°
2026-04-23 18:51 51.46268 12.68091 3103 ft 244 kts 235°
2026-04-23 18:52 51.45351 12.65988 3000 ft 225 kts 251°
2026-04-23 18:52 51.44992 12.63596 3019 ft 220 kts 270°
2026-04-23 18:52 51.44889 12.61155 3002 ft 218 kts 270°
2026-04-23 18:52 51.44788 12.58728 3003 ft 218 kts 270°
2026-04-23 18:53 51.44683 12.56290 3014 ft 219 kts 270°
2026-04-23 18:53 51.44577 12.53854 3015 ft 219 kts 270°
2026-04-23 18:53 51.44472 12.51474 3006 ft 207 kts 270°
2026-04-23 18:53 51.44373 12.49259 3007 ft 191 kts 270°
2026-04-23 18:54 51.44311 12.47862 2978 ft 182 kts 270°
2026-04-23 18:54 51.44226 12.45924 2837 ft 174 kts 271°
2026-04-23 18:54 51.44142 12.44006 2602 ft 170 kts 271°
2026-04-23 18:54 51.44059 12.42140 2368 ft 164 kts 271°
2026-04-23 18:55 51.43978 12.40317 2157 ft 164 kts 271°
2026-04-23 18:55 51.43897 12.38506 1941 ft 162 kts 271°
2026-04-23 18:55 51.43819 12.36831 1728 ft 140 kts 272°
2026-04-23 18:55 51.43751 12.35326 1535 ft 132 kts 271°
2026-04-23 18:56 51.43687 12.33887 1367 ft 128 kts 271°
2026-04-23 18:56 51.43624 12.32466 1189 ft 128 kts 269°
2026-04-23 18:56 51.43561 12.31039 1014 ft 129 kts 268°
2026-04-23 18:56 51.43499 12.29603 880 ft 130 kts 268°
2026-04-23 18:57 51.43429 12.28170 659 ft 128 kts 269°
2026-04-23 18:57 51.43369 12.26736 504 ft 129 kts 266°
2026-04-23 18:57 51.43306 12.25331 451 ft 120 kts 267°
2026-04-23 18:57 51.43261 12.24473 429 ft 45 kts 264°
2026-04-23 18:58 51.43234 12.24021 432 ft 35 kts 264°
2026-04-23 18:58 51.43155 12.23695 428 ft 28 kts 241°
2026-04-23 18:58 51.43083 12.23542 437 ft 1 kts 232°
2026-04-23 18:58 51.43048 12.23479 436 ft 12 kts 223°
2026-04-23 18:59 51.42955 12.23437 440 ft 17 kts 189°
2026-04-23 18:59 51.42889 12.23282 435 ft 19 kts 263°
2026-04-23 18:59 51.42882 12.23057 437 ft 22 kts 267°
2026-04-23 18:59 51.42872 12.22804 426 ft 23 kts 266°
2026-04-23 19:00 51.42857 12.22539 434 ft 25 kts 265°
2026-04-23 19:00 51.42841 12.22246 437 ft 27 kts 265°
2026-04-23 19:00 51.42828 12.21928 429 ft 30 kts 266°
2026-04-23 19:00 51.42817 12.21604 430 ft 27 kts 266°
2026-04-23 19:01 51.42809 12.21400 433 ft 12 kts 266°
2026-04-23 19:01 51.42792 12.21275 427 ft 12 kts 234°
2026-04-23 19:01 51.42706 12.21207 436 ft 16 kts 194°
2026-04-23 19:01 51.42591 12.21153 430 ft 19 kts 197°
2026-04-23 19:02 51.42454 12.21089 426 ft 22 kts 194°
2026-04-23 19:02 51.42321 12.21038 434 ft 16 kts 193°
2026-04-23 19:02 51.42244 12.21008 430 ft 0 kts 194°
2026-04-23 19:03 51.42208 12.20994 428 ft 12 kts 194°
2026-04-23 19:03 51.42103 12.20950 415 ft 18 kts 195°
2026-04-23 19:04 51.41987 12.20987 425 ft 17 kts 126°
2026-04-23 19:04 51.41958 12.21161 424 ft 17 kts 107°
2026-04-23 19:04 51.41919 12.21365 428 ft 12 kts 97°
2026-04-23 19:04 51.41985 12.21419 435 ft 13 kts 14°
2026-04-23 19:05 51.42053 12.21449 428 ft 1 kts 15°
2026-04-23 19:05 51.42056 12.21450 429 ft 0 kts 15°